User: anonymous   Login
Location: Julian California
(33.0790°N, 116.6010°W)
Time: 02:03:19
(UTC-08:00)
Language:

Terra - Orbit

View from above orbital plane
View from above orbital plane
View from above satellite
View from above satellite

Ground track
Ground track

The orbit data is extracted from the following two-line orbital elements,

1 25994U 99068A   18050.55253021  .00000067  00000-0  24885-4 0  9992
2 25994  98.2064 127.0767 0001147  86.2685 273.8645 14.57113717966696
Epoch (UTC): 19 February 2018 13:15:38
Eccentricity: 0.0001147
inclination: 98.2064°
perigee height: 702 km
apogee height: 703 km
right ascension of ascending node: 127.0767°
argument of perigee: 86.2685°
revolutions per day: 14.57113717
mean anomaly at epoch: 273.8645°
orbit number at epoch: 96669

The dashed part of the orbit path shows where the satellite is in the earth's shadow,  

DLR